TimeEDT,TemperatureF,Dew PointF,Humidity,Sea Level PressureIn,VisibilityMPH,Wind Direction,Wind SpeedMPH,Gust SpeedMPH,PrecipitationIn,Events,Conditions,WindDirDegrees,DateUTC
12:53 AM,44.1,39.9,85,29.85,8.0,SSE,5.8,-,N/A,,Clear,150,2014-04-26 04:53:00
1:53 AM,45.0,41.0,86,29.83,8.0,SSE,13.8,-,N/A,,Clear,150,2014-04-26 05:53:00
2:53 AM,45.0,41.0,86,29.81,8.0,SSE,10.4,-,N/A,,Scattered Clouds,150,2014-04-26 06:53:00
3:53 AM,46.0,41.0,83,29.80,9.0,SSE,9.2,-,N/A,,Overcast,160,2014-04-26 07:53:00
4:53 AM,48.0,41.0,77,29.79,10.0,South,9.2,-,N/A,,Overcast,170,2014-04-26 08:53:00
5:53 AM,50.0,39.9,68,29.78,10.0,SSE,11.5,-,N/A,,Overcast,160,2014-04-26 09:53:00
6:53 AM,52.0,39.9,63,29.79,10.0,SSW,11.5,-,N/A,,Overcast,200,2014-04-26 10:53:00
7:53 AM,52.0,41.0,66,29.79,10.0,SSW,11.5,-,N/A,,Mostly Cloudy,200,2014-04-26 11:53:00
8:53 AM,53.1,42.1,66,29.81,10.0,WNW,12.7,25.3,N/A,,Clear,300,2014-04-26 12:53:00
9:00 AM,51.8,42.8,71,29.80,10.0,West,11.5,-,N/A,,Clear,280,2014-04-26 13:00:00
10:53 AM,50.0,44.1,80,29.86,10.0,West,11.5,-,N/A,,Clear,260,2014-04-26 14:53:00
11:53 AM,50.0,44.1,80,29.89,10.0,West,12.7,-,N/A,,Clear,270,2014-04-26 15:53:00
12:53 PM,48.9,43.0,80,29.91,10.0,WNW,9.2,-,N/A,,Clear,300,2014-04-26 16:53:00
1:53 PM,48.9,42.1,77,29.91,10.0,NW,6.9,-,N/A,,Clear,310,2014-04-26 17:53:00
2:53 PM,48.9,41.0,74,29.94,10.0,WNW,5.8,-,N/A,,Clear,300,2014-04-26 18:53:00
3:53 PM,48.9,39.0,69,29.96,10.0,NNW,9.2,-,N/A,,Clear,330,2014-04-26 19:53:00
4:53 PM,48.9,37.9,66,29.99,10.0,North,6.9,-,N/A,,Clear,350,2014-04-26 20:53:00
5:53 PM,48.9,37.9,66,30.00,10.0,NNE,13.8,21.9,N/A,,Clear,30,2014-04-26 21:53:00
6:53 PM,45.0,37.9,76,30.02,10.0,NNE,16.1,-,N/A,,Clear,30,2014-04-26 22:53:00
7:53 PM,43.0,37.0,80,30.04,10.0,NNE,16.1,-,N/A,,Clear,20,2014-04-26 23:53:00
8:53 PM,42.1,36.0,79,30.06,10.0,North,16.1,21.9,N/A,,Clear,10,2014-04-27 00:53:00
9:53 PM,39.9,34.0,79,30.09,10.0,North,17.3,24.2,N/A,,Scattered Clouds,10,2014-04-27 01:53:00
10:08 PM,41.0,35.6,81,30.08,10.0,North,17.3,-,N/A,,Mostly Cloudy,10,2014-04-27 02:08:00
10:53 PM,39.9,33.1,77,30.10,10.0,NNE,12.7,20.7,N/A,,Overcast,30,2014-04-27 02:53:00
11:53 PM,39.0,33.1,79,30.10,10.0,NNE,11.5,-,N/A,,Overcast,30,2014-04-27 03:53:00